EW6143 Weather Reports


time (UTC)temp
C
wind
direction
speed
KPH
gust
KPH
rain 1hr
cm
rain 24hr
cm
rain mn
cm
humidity
%
barometer
mb
20260503024528 19 316 0.0 3.2 0.00 0.00 0.00 50 1019.5
20260503023027 20 0 0.0 3.2 0.00 0.00 0.00 47 1019.4
20260503021527 20 316 1.6 4.8 0.00 0.00 0.00 47 1019.3
20260503020027 20 318 0.0 4.8 0.00 0.00 0.00 47 1019.1
20260503014527 21 0 0.0 1.6 0.00 0.00 0.00 45 1019.2
20260503013032 21 67 0.0 3.2 0.00 0.00 0.00 42 1019.0
20260503011528 22 0 0.0 3.2 0.00 0.00 0.00 38 1018.8
20260503010034 23 0 0.0 3.2 0.00 0.00 0.00 38 1018.8
20260503004530 23 0 0.0 3.2 0.00 0.00 0.00 37 1018.6
20260503003029 23 0 0.0 4.8 0.00 0.00 0.00 38 1018.4
20260503001529 24 81 1.6 6.4 0.00 0.00 0.00 35 1018.5
20260503000027 25 140 1.6 6.4 0.00 0.00 0.00 32 1018.5
20260502234537 24 23 0.0 6.4 0.00 0.00 0.00 33 1018.6
20260502233028 25 82 1.6 9.7 0.00 0.00 0.00 33 1018.7
20260502231529 25 40 1.6 8.0 0.00 0.00 0.00 32 1018.7
20260502230033 25 0 1.6 14.5 0.00 0.00 0.00 30 1018.7
20260502224529 25 63 1.6 11.3 0.00 0.00 0.00 30 1018.8
20260502223028 25 360 3.2 14.5 0.00 0.00 0.00 32 1018.8
20260502221527 26 67 0.0 8.0 0.00 0.00 0.00 30 1019.0
20260502220029 25 113 4.8 12.9 0.00 0.00 0.00 30 1019.1
20260502214529 25 92 4.8 16.1 0.00 0.00 0.00 30 1019.2
20260502213027 25 139 6.4 17.7 0.00 0.00 0.00 30 1019.3
20260502211530 25 158 3.2 16.1 0.00 0.00 0.00 29 1019.6
20260502210030 25 29 1.6 11.3 0.00 0.00 0.00 33 1019.7
20260502204529 25 57 6.4 14.5 0.00 0.00 0.00 29 1019.9
20260502203028 25 235 4.8 14.5 0.00 0.00 0.00 30 1019.9
20260502201533 25 169 3.2 12.9 0.00 0.00 0.00 31 1020.2
20260502200027 25 210 9.7 16.1 0.00 0.00 0.00 31 1020.5
20260502194529 25 14 3.2 14.5 0.00 0.00 0.00 31 1020.5
20260502193029 25 148 3.2 12.9 0.00 0.00 0.00 31 1020.7
20260502191529 25 147 6.4 12.9 0.00 0.00 0.00 30 1020.8
20260502190035 25 90 1.6 16.1 0.00 0.00 0.00 30 1021.0
20260502184536 23 88 3.2 9.7 0.00 0.00 0.00 32 1021.2
20260502183031 24 153 4.8 14.5 0.00 0.00 0.00 30 1021.4
20260502181539 24 89 3.2 11.3 0.00 0.00 0.00 32 1021.6
20260502163027 22 81 6.4 14.5 0.00 0.00 0.00 33 1022.3
20260502161528 22 195 1.6 14.5 0.00 0.00 0.00 35 1022.3
20260502151534 20 74 1.6 9.7 0.00 0.00 0.00 43 1022.0
20260502123033 10 0 0.0 0.0 0.00 0.00 0.00 87 1020.8
20260502121527 9 0 0.0 0.0 0.00 0.00 0.00 86 1020.5
20260502114528 9 0 0.0 0.0 0.00 0.00 0.00 86 1020.0
20260502113032 9 0 0.0 0.0 0.00 0.00 0.00 85 1019.8
20260502111529 9 0 0.0 0.0 0.00 0.00 0.00 85 1019.6
20260502110029 8 0 0.0 0.0 0.00 0.00 0.00 85 1019.6
20260502104527 8 0 0.0 0.0 0.00 0.00 0.00 84 1019.3
20260502103030 9 0 0.0 0.0 0.00 0.00 0.00 84 1019.2
20260502101540 9 0 0.0 0.0 0.00 0.00 0.00 84 1019.1
20260502091528 10 0 0.0 0.0 0.00 0.00 0.00 84 1019.1
20260502071529 11 0 0.0 0.0 0.00 0.00 0.00 82 1018.9
20260502070028 11 0 0.0 0.0 0.00 0.00 0.00 82 1019.0
20260502064526 11 0 0.0 0.0 0.00 0.00 0.00 81 1019.3
20260502063031 11 0 0.0 0.0 0.00 0.00 0.00 81 1019.3
20260502061529 11 0 0.0 0.0 0.00 0.00 0.00 81 1019.2
20260502060027 12 0 0.0 0.0 0.00 0.00 0.00 81 1019.1
20260502054528 12 0 0.0 0.0 0.00 0.00 0.00 80 1019.2
20260502053030 12 0 0.0 0.0 0.00 0.00 0.00 80 1019.1
20260502051529 12 0 0.0 0.0 0.00 0.00 0.00 79 1019.2
20260502050037 13 0 0.0 0.0 0.00 0.00 0.00 78 1019.1
20260502044531 13 0 0.0 0.0 0.00 0.00 0.00 77 1019.0
20260502043027 13 0 0.0 0.0 0.00 0.00 0.00 76 1019.1
20260502041537 13 0 0.0 0.0 0.00 0.00 0.00 76 1018.8
20260502040026 14 0 0.0 0.0 0.00 0.00 0.00 75 1018.9
20260502034528 14 0 0.0 0.0 0.00 0.00 0.00 74 1018.9
20260502033031 15 0 0.0 0.0 0.00 0.00 0.00 74 1018.9
20260502031530 15 0 0.0 0.0 0.00 0.00 0.00 72 1018.7
20260502030030 15 0 0.0 0.0 0.00 0.00 0.00 72 1018.6